www.pogodaiklimat.ru
ПОГОДА в Бахавалпуре
Время
(UTC), дата
03 12.11
06 12.11
09 12.11
12 12.11
15 12.11
18 12.11
21 12.11
00 13.11
03 13.11
06 13.11
09 13.11
12 13.11
15 13.11
18 13.11
21 13.11
00 14.11
03 14.11
06 14.11
09 14.11
12 14.11
15 14.11
18 14.11
21 14.11
00 15.11
03 15.11
06 15.11
09 15.11
12 15.11
15 15.11
18 15.11
21 15.11
00 16.11
03 16.11
06 16.11
09 16.11
12 16.11
15 16.11
18 16.11
21 16.11
00 17.11
03 17.11
06 17.11
09 17.11
12 17.11
15 17.11
18 17.11
21 17.11
00 18.11
03 18.11
06 18.11
09 18.11
12 18.11
15 18.11
18 18.11
21 18.11
00 19.11
Ветер
(напр.,м/с)
Видим. Явления Облачность Т
(С)
Тd
(С)
f
(%)
Тe
(С)
Тes
(С)
Комфортность P
(гПа)
Po
(гПа)
Тmin
(С)
Tmax
(С)
R
(мм)
R24
(мм)
S
(см)
штиль 0 2000 м дым 6/0
[Ac trans Ci fib]
+15.0 +9.2 68 +15 +16 тепло 1013.6 1000.5 +12.9
Ю 1 4000 м мгла 4/0
[Ac trans]
+24.5 +11.3 44 +26 +34 жарко 1014.5 1000.0
штиль 0 4000 м мгла ясно +28.0 +11.6 36 +29 +39 жарко 1012.7 999.8
штиль 0 2000 м мгла 6/3 1200 м
[Sc Ac trans]
+27.0 +11.4 38 +28 +28 жарко 1011.5 999.0 +29.1
СВ 1 2000 м дым 3/0
[Ac trans]
+22.0 +12.4 54 +24 +24 комфорт 1012.6 999.4
СВ 1 2000 м дым 3/0
[Ac trans]
+19.0 +11.8 63 +21 +21 комфорт 1014.3 1000.0
СВ 1 2000 м дым 5/0
[Ac trans]
+16.0 +11.4 74 +17 +17 тепло 1012.9 1000.0
штиль 0 2000 м дым 3/0
[Ac trans]
+15.0 +11.3 79 +15 +15 тепло 1014.2 1001.1
штиль 0 1000 м дымка {гроза} 8/5 300 м
[Sc Ac As]
+16.0 +14.3 90 +16 +16 тепло 1016.5 1003.4 +14.5 2
СВ 2 500 м гроза без осадков 10/4 1200 м
[Sc Ac As]
+21.0 +15.1 69 +25 +26 комфорт 1016.8 1000.0
СЗ 2 2000 м дым {гроза, дождь} 8/4 1200 м
[Sc Ac trans]
+25.0 +15.1 54 +28 +31 жарко 1015.4 1000.0 0.4
СЗ 3 2000 м дым 8/4 1200 м
[Sc Ac trans]
+22.0 +15.4 66 +26 +26 душно 1014.0 1001.3 +25.3
СЗ 1 1000 м дым 8/4 1200 м
[Sc Ac trans]
+19.0 +14.7 76 +22 +22 комфорт 1015.3 1000.0
С 1 1000 м дымка 8/4 1200 м
[Sc Ac trans]
+16.0 +14.3 90 +17 +17 тепло 1017.7 1000.0
штиль 0 500 м туман на расстоянии 8/4 1200 м
[Sc Ac trans]
+13.0 +12.1 94 +12 +12 тепло 1015.6 1002.0
штиль 0 500 м туман местами 6/3 1200 м
[Sc Ac trans]
+13.0 +12.1 94 +12 +12 тепло 1015.4 1002.3
штиль 0 500 м туман местами 9/5 300 м
[Sc Ac trans]
+16.5 +14.8 90 +16 +17 тепло 1016.8 1003.7 +12.9 4.0
СВ 2 1000 м дым {туман} 9/4 1200 м
[Sc Ac trans]
+19.5 +15.3 77 +22 +24 комфорт 1017.7 1004.4
ЮВ 1 1000 м дым 9/4 1200 м
[Sc Ac trans]
+21.5 +15.7 70 +25 +27 комфорт 1016.0 1000.0
штиль 0 1000 м дым 9/4 1200 м
[Sc Ac As]
+22.0 +17.2 74 +26 +26 душно 1015.4 1002.7 +22.9
штиль 0 2000 м дымка 9/4 1200 м
[Sc Ac As]
+19.5 +16.2 81 +21 +21 комфорт 1016.4 1000.0
СВ 1 2000 м дымка 8/3 1200 м
[Sc Ac As]
+18.0 +14.6 81 +19 +19 тепло 1016.4 1003.0
СВ 1 2000 м дымка 9/4 1200 м
[Sc Ac trans]
+16.0 +13.3 84 +17 +17 тепло 1015.8 1000.0
штиль 0 2000 м дымка 4/0
[Ac trans]
+14.5 +12.7 89 +14 +14 тепло 1015.9 1002.8
штиль 0 1000 м дымка 4/0
[Ac trans]
+15.0 +13.2 89 +15 +16 тепло 1017.2 1004.1 +14.3
СВ 3 1000 м дым 3/0
[Ac trans]
+20.0 +15.8 77 +23 +28 комфорт 1018.0 1004.7
штиль 0 1000 м слаб. морось 9/4 1200 м
[Sc Ac As]
+21.5 +16.6 74 +25 +27 комфорт 1016.5 1000.0 0.0
штиль 0 1000 м слаб. морось 10/4 1200 м
[Sc Ac As]
+20.0 +16.7 81 +22 +22 комфорт 1014.9 1002.1 +22.3 0.0
штиль 0 1000 м слаб. дождь 10/4 1200 м
[Sc Ac As]
+18.0 +16.3 90 +18 +18 тепло 1016.1 1000.0 4
штиль 0 1000 м дымка {дождь} 10/4 1200 м
[Sc Ac As]
+18.0 +16.3 90 +18 +18 тепло 1016.3 1002.9 0.4
СВ 1 1000 м дымка 9/4 1200 м
[Sc Ac As]
+16.0 +13.3 84 +17 +17 тепло 1015.8 1000.0
штиль 0 1000 м дымка {гроза, дождь} 9/4 1200 м
[Sc Ac As]
+16.0 +15.1 94 +16 +16 тепло 1015.4 1002.3 9
штиль 0 500 м в посл. час гроза {дождь} 8/4 1200 м
[Sc Ac As]
+16.5 +15.6 94 +16 +17 тепло 1017.2 1004.1 +14.9 4 170.0
штиль 0 1000 м дымка 8/4 1200 м
[Sc Ac trans]
+20.0 +17.6 86 +23 +27 комфорт 1018.3 1000.0
В 1 4000 м дым 4/0
[Ac trans]
+23.5 +18.0 71 +28 +34 душно 1016.2 1003.1
штиль 0 4000 м дым 3/0
[Ac trans]
+23.5 +18.0 71 +28 +28 душно 1015.7 1003.0 +24.3
штиль 0 2000 м дым 3/0
[Ac trans]
+20.5 +17.3 82 +24 +24 комфорт 1017.4 1000.0
штиль 0 2000 м дым 3/0
[Ac trans]
+18.5 +16.0 85 +19 +19 тепло 1018.0 1000.0
штиль 0 2000 м дымка 3/0
[Ac trans]
+17.0 +15.3 90 +17 +17 тепло 1017.4 1000.0
штиль 0 2000 м дымка ясно +16.0 +14.3 90 +16 +16 тепло 1017.7 1004.7
штиль 0 1000 м дымка ясно +15.5 +13.7 89 +15 +16 тепло 1019.2 1006.1 +14.9
С 1 2000 м дым ясно +21.0 +16.0 73 +26 +36 душно 1019.8 1000.0
СЗ 1 4000 м дым 3/0
[Ci fib]
+25.0 +16.1 58 +28 +37 жарко 1017.2 1000.0
штиль 0 4000 м дым 3/0
[Ci fib]
+24.5 +16.4 61 +28 +28 душно 1015.6 1002.9 +25.8
штиль 0 2000 м дым 3/0
[Ac trans]
+20.0 +14.9 72 +22 +22 комфорт 1016.0 1000.0
штиль 0 2000 м дымка 1/0
[Ac trans]
+18.0 +14.6 81 +18 +18 тепло 1016.1 1000.0
штиль 0 2000 м дымка ясно +16.5 +13.9 85 +16 +16 тепло 1015.6 1002.1
штиль 0 2000 м дымка ясно +15.0 +13.2 89 +15 +15 тепло 1015.1 1002.0
штиль 0 1000 м дымка ясно +15.5 +13.7 89 +15 +16 тепло 1015.6 1002.5 +14.3
штиль 0 2000 м дым 1/0
[Ac trans]
+23.5 +16.2 64 +27 +37 душно 1016.2 1000.0
ЮЗ 1 4000 м мгла 3/0
[Ac trans]
+28.0 +14.9 45 +31 +38 душно 1013.4 1000.0
штиль 0 4000 м дым 3/0
[Ac trans]
+27.0 +15.7 50 +30 +30 душно 1012.4 999.9 +28.7
штиль 0 4000 м дым ясно +22.5 +15.9 66 +27 +27 душно 1013.5 1000.0
штиль 0 4000 м дым ясно +19.0 +14.7 76 +20 +20 тепло 1014.0 1000.0
штиль 0 4000 м дым ясно +17.5 +13.1 75 +18 +18 тепло 1013.5 1000.0
штиль 0 2000 м дым ясно +15.5 +12.8 84 +15 +15 тепло 1013.3 1000.2
Местоположение метеостанции Бахавалпур (Пакистан): широта 29.40 долгота 71.78 высота над уровнем моря 113 м.
В архиве по умолчанию представлена погода в Бахавалпуре за последнюю неделю. Архивные данные за месяц целиком и за предыдущие месяцы, начиная с января 2011 года, Вы можете получить, выбрав интересующий диапазон дат из раскрывающегося списка и нажав кнопку "Найти!".
*Определитесь, кто Вы:
Внимание! Время в таблицах - всемирное. Для получения местного времени необходимо прибавить поправку, которая равна 5 ч.
Смотрите также архив погоды в соседних городах и на ближайших метеорологических станциях:
Партнеры нашего сайта:      
Пояснения к столбцам:
  • Ветер - указаны скорость ветра в м/с - средняя за 10 мин, порывы в срок и между сроками (в фигурных скобках) и направление, откуда дует ветер: С - северный,
  • СВ - северо-восточный, В - восточный, ЮВ - юго-восточный, Ю - южный, ЮЗ - юго-западный, З - западный, СЗ - северо-западный.
  • Видимость - горизонтальная дальность видимости в метрах или километрах. При видимости от 1 до 10 км при отсутствии осадков обычно наблюдается дымка, при ухудшении видимости до 1 км и менее - туман. В сухую погоду видимость может ухудшаться дымом, пылью или мглою.
  • Явления - указаны атмосферные явления, наблюдавшиеся в срок или в последний час перед сроком; фигурными скобками обозначены явления, наблюдавшиеся между сроками (за 1-3 часа до срока); квадратными скобками обозначены град или гололедные отложения с указанием их диаметра в мм.
  • Облачность - указаны через наклонную черту общая и нижняя облачность в баллах и высота нижней границы облаков в метрах; квадратными скобками обозначены формы облаков: Ci - перистые, Cs - перисто-слоистые, Cc - перисто-кучевые, Ac - высококучевые, As - высокослоистые, Sc - слоисто-кучевые, Ns - слоисто-дождевые, Cu - кучевые, Cb - кучево-дождевые. Подробнее классификацию облаков см. в Атласе облаков (PDF).
  • T - Температура воздуха - температура, измеренная на высоте 2 м над землей.
  • Td - Температура точки росы - температура, при понижении до которой содержащийся в воздухе водяной пар достигнет насыщения.
  • f - Относительная влажность воздуха - влажноcть воздуха, измеренная на высоте 2 м над землей.
  • Te - Эффективная температура - температура, которую ощущает одетый по сезону человек в тени. Характеристика душности погоды. При расчете учитывается влияние влажности воздуха и скорости ветра на теплоощущения человека.
  • Tes - Эффективная температура на солнце - температура, которую ощущает человек, с поправкой на солнечный нагрев. Характеристика знойности погоды. Зависит от высоты солнца над горизонтом, облачности и скорости ветра. Ночью, в пасмурную погоду, а также при ветре 12 м/с и более поправка равна нулю.
  • P - Атмосферное давление - приведенное к уровню моря атмосферное давление.
  • Po - Атмосферное давление - измеренное на уровне метеостанции атмосферное давление.
  • Tmin - Минимальная температура - минимум температуры воздуха на высоте 2 м над землей.
  • Tmax - Максимальная температура - максимум температуры воздуха на высоте 2 м над землей.
  • R - Количество осадков - Количество выпавших осадков за период времени, мм. При наведении курсора мыши на число - период времени, за который выпало указанное количество осадков.
  • R24 - Количество осадков - Количество выпавших осадков за 24 часа, мм.
  • S - Снежный покров - Высота снежного покрова, см. При наведении курсора мыши на число - состояние снежного покрова и степень покрытия местности в баллах.